Time,TemperatureF,DewpointF,PressureIn,WindDirection,WindDirectionDegrees,WindSpeedMPH,WindSpeedGustMPH,Humidity,HourlyPrecipIn,Conditions,Clouds,dailyrainin,SoftwareType,DateUTC
2013-01-31 00:00:00,35.3,27.2,29.81,West,263,9.0,23.0,72,0.00,,,0.00,Wunderground v.1.15,2013-01-31 06:00:00,
2013-01-31 00:05:00,35.3,26.8,29.81,West,271,11.0,23.0,71,0.00,,,0.00,Wunderground v.1.15,2013-01-31 06:05:00,
2013-01-31 00:10:00,35.2,26.7,29.81,West,277,10.0,23.0,71,0.00,,,0.00,Wunderground v.1.15,2013-01-31 06:10:00,
2013-01-31 00:15:00,35.2,26.7,29.83,West,276,10.0,23.0,71,0.00,,,0.00,Wunderground v.1.15,2013-01-31 06:15:00,
2013-01-31 00:25:00,35.0,26.9,29.83,NW,307,7.0,23.0,72,0.00,,,0.00,Wunderground v.1.15,2013-01-31 06:25:00,
2013-01-31 00:35:00,34.4,26.0,29.82,NW,313,10.0,14.0,71,0.00,,,0.00,Wunderground v.1.15,2013-01-31 06:35:00,
2013-01-31 00:40:00,34.4,26.0,29.82,West,278,9.0,23.0,71,0.00,,,0.00,Wunderground v.1.15,2013-01-31 06:40:00,
2013-01-31 00:45:00,34.4,26.0,29.83,WNW,294,8.0,23.0,71,0.00,,,0.00,Wunderground v.1.15,2013-01-31 06:45:00,
2013-01-31 00:50:00,34.2,25.8,29.83,NNW,344,8.0,8.0,71,0.00,,,0.00,Wunderground v.1.15,2013-01-31 06:50:00,
2013-01-31 00:55:00,34.0,25.6,29.83,WNW,288,6.0,23.0,71,0.00,,,0.00,Wunderground v.1.15,2013-01-31 06:55:00,
2013-01-31 01:00:00,33.9,25.8,29.82,WNW,296,5.0,23.0,72,0.00,,,0.00,Wunderground v.1.15,2013-01-31 07:00:00,
2013-01-31 01:10:00,33.6,25.5,29.82,NW,308,3.0,23.0,72,0.00,,,0.00,Wunderground v.1.15,2013-01-31 07:10:00,
2013-01-31 01:15:00,33.5,25.8,29.82,West,280,4.0,23.0,73,0.00,,,0.00,Wunderground v.1.15,2013-01-31 07:15:00,
2013-01-31 01:25:00,33.3,25.6,29.82,WNW,284,5.0,23.0,73,0.00,,,0.00,Wunderground v.1.15,2013-01-31 07:25:00,
2013-01-31 01:30:00,33.3,25.6,29.83,West,276,4.0,23.0,73,0.00,,,0.00,Wunderground v.1.15,2013-01-31 07:30:00,
2013-01-31 01:35:00,33.2,25.8,29.83,WNW,287,4.0,23.0,74,0.00,,,0.00,Wunderground v.1.15,2013-01-31 07:35:00,
2013-01-31 01:40:00,33.3,25.9,29.83,WNW,286,1.0,1.0,74,0.00,,,0.00,Wunderground v.1.15,2013-01-31 07:40:00,
2013-01-31 01:45:00,33.2,25.8,29.83,WNW,286,0.0,23.0,74,0.00,,,0.00,Wunderground v.1.15,2013-01-31 07:45:00,
2013-01-31 01:50:00,33.2,25.8,29.83,WNW,286,0.0,23.0,74,0.00,,,0.00,Wunderground v.1.15,2013-01-31 07:50:00,
2013-01-31 01:55:00,33.0,25.6,29.83,WNW,286,0.0,23.0,74,0.00,,,0.00,Wunderground v.1.15,2013-01-31 07:55:00,
2013-01-31 02:05:00,32.8,25.7,29.83,West,265,1.0,23.0,75,0.00,,,0.00,Wunderground v.1.15,2013-01-31 08:05:00,
2013-01-31 02:10:00,32.8,25.7,29.83,West,265,0.0,23.0,75,0.00,,,0.00,Wunderground v.1.15,2013-01-31 08:10:00,
2013-01-31 02:20:00,32.7,25.6,29.83,West,265,0.0,23.0,75,0.00,,,0.00,Wunderground v.1.15,2013-01-31 08:20:00,
2013-01-31 02:25:00,32.6,25.6,29.83,West,271,1.0,23.0,75,0.00,,,0.00,Wunderground v.1.15,2013-01-31 08:25:00,
2013-01-31 02:30:00,32.6,25.6,29.83,West,271,1.0,1.0,75,0.00,,,0.00,Wunderground v.1.15,2013-01-31 08:30:00,
2013-01-31 02:35:00,32.6,25.6,29.83,West,269,1.0,4.0,75,0.00,,,0.00,Wunderground v.1.15,2013-01-31 08:35:00,
2013-01-31 02:40:00,32.7,25.6,29.83,West,277,2.0,23.0,75,0.00,,,0.00,Wunderground v.1.15,2013-01-31 08:40:00,
2013-01-31 02:50:00,32.7,25.3,29.83,West,273,1.0,1.0,74,0.00,,,0.00,Wunderground v.1.15,2013-01-31 08:50:00,
2013-01-31 02:55:00,32.7,25.6,29.83,West,271,1.0,23.0,75,0.00,,,0.00,Wunderground v.1.15,2013-01-31 08:55:00,
2013-01-31 03:00:00,32.6,25.6,29.83,West,266,1.0,23.0,75,0.00,,,0.00,Wunderground v.1.15,2013-01-31 09:00:00,
2013-01-31 03:05:00,32.6,25.6,29.83,West,265,0.0,23.0,75,0.00,,,0.00,Wunderground v.1.15,2013-01-31 09:05:00,
2013-01-31 03:10:00,32.5,25.5,29.83,West,266,0.0,23.0,75,0.00,,,0.00,Wunderground v.1.15,2013-01-31 09:10:00,
2013-01-31 03:15:00,32.3,25.3,29.84,West,265,0.0,23.0,75,0.00,,,0.00,Wunderground v.1.15,2013-01-31 09:15:00,
2013-01-31 03:25:00,32.3,25.6,29.84,West,266,0.0,23.0,76,0.00,,,0.00,Wunderground v.1.15,2013-01-31 09:25:00,
2013-01-31 03:30:00,32.4,25.7,29.83,WSW,253,1.0,1.0,76,0.00,,,0.00,Wunderground v.1.15,2013-01-31 09:30:00,
2013-01-31 03:35:00,32.4,25.7,29.83,West,278,1.0,8.0,76,0.00,,,0.00,Wunderground v.1.15,2013-01-31 09:35:00,
2013-01-31 03:45:00,32.7,26.0,29.83,West,273,1.0,23.0,76,0.00,,,0.00,Wunderground v.1.15,2013-01-31 09:45:00,
2013-01-31 03:50:00,32.8,25.7,29.83,WNW,286,1.0,23.0,75,0.00,,,0.00,Wunderground v.1.15,2013-01-31 09:50:00,
2013-01-31 04:00:00,32.7,25.6,29.83,West,271,1.0,1.0,75,0.00,,,0.00,Wunderground v.1.15,2013-01-31 10:00:00,
2013-01-31 04:05:00,32.5,25.5,29.83,West,271,1.0,23.0,75,0.00,,,0.00,Wunderground v.1.15,2013-01-31 10:05:00,
2013-01-31 04:10:00,32.4,25.7,29.83,West,272,0.0,23.0,76,0.00,,,0.00,Wunderground v.1.15,2013-01-31 10:10:00,
2013-01-31 04:15:00,32.3,25.6,29.83,West,272,0.0,23.0,76,0.00,,,0.00,Wunderground v.1.15,2013-01-31 10:15:00,
2013-01-31 04:20:00,32.1,25.7,29.83,West,271,0.0,23.0,77,0.00,,,0.00,Wunderground v.1.15,2013-01-31 10:20:00,
2013-01-31 04:25:00,31.9,25.5,29.83,West,259,1.0,23.0,77,0.00,,,0.00,Wunderground v.1.15,2013-01-31 10:25:00,
2013-01-31 04:35:00,31.9,25.5,29.83,WSW,252,0.0,23.0,77,0.00,,,0.00,Wunderground v.1.15,2013-01-31 10:35:00,
2013-01-31 04:40:00,32.0,25.6,29.83,WSW,252,0.0,23.0,77,0.00,,,0.00,Wunderground v.1.15,2013-01-31 10:40:00,
2013-01-31 04:50:00,31.9,25.5,29.83,WSW,253,1.0,23.0,77,0.00,,,0.00,Wunderground v.1.15,2013-01-31 10:50:00,
2013-01-31 04:55:00,32.1,25.7,29.83,WSW,253,2.0,23.0,77,0.00,,,0.00,Wunderground v.1.15,2013-01-31 10:55:00,
2013-01-31 05:00:00,32.2,25.8,29.85,WSW,253,2.0,23.0,77,0.00,,,0.00,Wunderground v.1.15,2013-01-31 11:00:00,
2013-01-31 05:10:00,32.2,25.8,29.85,WSW,257,2.0,2.0,77,0.00,,,0.00,Wunderground v.1.15,2013-01-31 11:10:00,
2013-01-31 05:15:00,32.1,25.7,29.86,WSW,257,2.0,4.0,77,0.00,,,0.00,Wunderground v.1.15,2013-01-31 11:15:00,
2013-01-31 05:20:00,32.2,26.1,29.86,WSW,256,3.0,23.0,78,0.00,,,0.00,Wunderground v.1.15,2013-01-31 11:20:00,
2013-01-31 05:25:00,32.3,25.9,29.86,WSW,248,5.0,23.0,77,0.00,,,0.00,Wunderground v.1.15,2013-01-31 11:25:00,
2013-01-31 05:30:00,32.4,26.0,29.87,WSW,246,5.0,23.0,77,0.00,,,0.00,Wunderground v.1.15,2013-01-31 11:30:00,
2013-01-31 05:40:00,32.4,26.0,29.87,WSW,252,4.0,23.0,77,0.00,,,0.00,Wunderground v.1.15,2013-01-31 11:40:00,
2013-01-31 05:45:00,32.4,26.0,29.88,West,270,4.0,23.0,77,0.00,,,0.00,Wunderground v.1.15,2013-01-31 11:45:00,
2013-01-31 05:55:00,32.4,26.0,29.88,West,268,2.0,6.0,77,0.00,,,0.00,Wunderground v.1.15,2013-01-31 11:55:00,
2013-01-31 06:00:00,32.5,26.1,29.88,West,268,2.0,23.0,77,0.00,,,0.00,Wunderground v.1.15,2013-01-31 12:00:00,
2013-01-31 06:05:00,32.5,26.1,29.88,WSW,246,3.0,23.0,77,0.00,,,0.00,Wunderground v.1.15,2013-01-31 12:05:00,
2013-01-31 06:15:00,32.6,26.2,29.89,West,276,3.0,23.0,77,0.00,,,0.00,Wunderground v.1.15,2013-01-31 12:15:00,
2013-01-31 06:20:00,32.6,26.2,29.89,West,273,3.0,23.0,77,0.00,,,0.00,Wunderground v.1.15,2013-01-31 12:20:00,
2013-01-31 06:25:00,32.7,26.3,29.89,West,269,3.0,23.0,77,0.00,,,0.00,Wunderground v.1.15,2013-01-31 12:25:00,
2013-01-31 06:30:00,32.6,26.2,29.89,West,269,2.0,23.0,77,0.00,,,0.00,Wunderground v.1.15,2013-01-31 12:30:00,
2013-01-31 06:35:00,32.5,26.1,29.89,WSW,244,3.0,23.0,77,0.00,,,0.00,Wunderground v.1.15,2013-01-31 12:35:00,
2013-01-31 06:40:00,32.5,26.1,29.89,West,261,3.0,3.0,77,0.00,,,0.00,Wunderground v.1.15,2013-01-31 12:40:00,
2013-01-31 06:50:00,32.5,26.4,29.90,West,265,2.0,23.0,78,0.00,,,0.00,Wunderground v.1.15,2013-01-31 12:50:00,
2013-01-31 06:55:00,32.5,26.4,29.90,West,279,3.0,23.0,78,0.00,,,0.00,Wunderground v.1.15,2013-01-31 12:55:00,
2013-01-31 07:00:00,32.4,26.3,29.90,West,279,2.0,2.0,78,0.00,,,0.00,Wunderground v.1.15,2013-01-31 13:00:00,
2013-01-31 07:05:00,32.4,26.3,29.90,West,279,2.0,5.0,78,0.00,,,0.00,Wunderground v.1.15,2013-01-31 13:05:00,
2013-01-31 07:10:00,32.4,26.3,29.90,WNW,283,3.0,23.0,78,0.00,,,0.00,Wunderground v.1.15,2013-01-31 13:10:00,
2013-01-31 07:15:00,32.4,26.3,29.91,WNW,284,2.0,23.0,78,0.00,,,0.00,Wunderground v.1.15,2013-01-31 13:15:00,
2013-01-31 07:25:00,32.6,26.5,29.91,WSW,242,2.0,3.0,78,0.00,,,0.00,Wunderground v.1.15,2013-01-31 13:25:00,
2013-01-31 07:30:00,33.0,26.6,29.91,West,272,3.0,23.0,77,0.00,,,0.00,Wunderground v.1.15,2013-01-31 13:30:00,
2013-01-31 07:35:00,33.3,26.5,29.91,WSW,252,5.0,23.0,76,0.00,,,0.00,Wunderground v.1.15,2013-01-31 13:35:00,
2013-01-31 07:40:00,33.5,26.7,29.91,WSW,247,5.0,5.0,76,0.00,,,0.00,Wunderground v.1.15,2013-01-31 13:40:00,
2013-01-31 07:45:00,33.8,27.0,29.92,WSW,256,4.0,6.0,76,0.00,,,0.00,Wunderground v.1.15,2013-01-31 13:45:00,
2013-01-31 07:55:00,34.4,27.3,29.92,West,264,4.0,23.0,75,0.00,,,0.00,Wunderground v.1.15,2013-01-31 13:55:00,
2013-01-31 08:00:00,34.4,27.0,29.92,West,263,4.0,23.0,74,0.00,,,0.00,Wunderground v.1.15,2013-01-31 14:00:00,
2013-01-31 08:05:00,34.8,27.4,29.92,WNW,292,5.0,23.0,74,0.00,,,0.00,Wunderground v.1.15,2013-01-31 14:05:00,
2013-01-31 08:10:00,35.0,27.2,29.92,WNW,287,6.0,6.0,73,0.00,,,0.00,Wunderground v.1.15,2013-01-31 14:10:00,
2013-01-31 08:15:00,35.2,27.1,29.93,WNW,286,6.0,23.0,72,0.00,,,0.00,Wunderground v.1.15,2013-01-31 14:15:00,
2013-01-31 08:20:00,35.3,26.8,29.93,West,263,6.0,6.0,71,0.00,,,0.00,Wunderground v.1.15,2013-01-31 14:20:00,
2013-01-31 08:30:00,35.7,26.5,29.93,West,267,6.0,23.0,69,0.00,,,0.00,Wunderground v.1.15,2013-01-31 14:30:00,
2013-01-31 08:35:00,36.0,27.2,29.93,WNW,300,6.0,23.0,70,0.00,,,0.00,Wunderground v.1.15,2013-01-31 14:35:00,
2013-01-31 08:40:00,36.3,27.4,29.93,West,264,5.0,23.0,70,0.00,,,0.00,Wunderground v.1.15,2013-01-31 14:40:00,
2013-01-31 08:50:00,36.9,27.3,29.93,WSW,240,6.0,23.0,68,0.00,,,0.00,Wunderground v.1.15,2013-01-31 14:50:00,
2013-01-31 08:55:00,36.9,27.0,29.93,WNW,288,6.0,23.0,67,0.00,,,0.00,Wunderground v.1.15,2013-01-31 14:55:00,
2013-01-31 09:05:00,37.8,27.5,29.94,WSW,248,5.0,8.0,66,0.00,,,0.00,Wunderground v.1.15,2013-01-31 15:05:00,
2013-01-31 09:10:00,38.2,27.5,29.94,SW,234,6.0,23.0,65,0.00,,,0.00,Wunderground v.1.15,2013-01-31 15:10:00,
2013-01-31 09:15:00,38.4,27.7,29.95,SW,231,6.0,23.0,65,0.00,,,0.00,Wunderground v.1.15,2013-01-31 15:15:00,
2013-01-31 09:20:00,39.0,27.8,29.95,West,275,4.0,4.0,64,0.00,,,0.00,Wunderground v.1.15,2013-01-31 15:20:00,
2013-01-31 09:25:00,39.3,28.1,29.95,SW,236,3.0,23.0,64,0.00,,,0.00,Wunderground v.1.15,2013-01-31 15:25:00,
2013-01-31 09:30:00,39.3,27.7,29.96,West,271,5.0,23.0,63,0.00,,,0.00,Wunderground v.1.15,2013-01-31 15:30:00,
2013-01-31 09:40:00,40.1,28.9,29.96,WSW,246,4.0,23.0,64,0.00,,,0.00,Wunderground v.1.15,2013-01-31 15:40:00,
2013-01-31 09:45:00,40.5,28.5,29.94,SW,225,5.0,23.0,62,0.00,,,0.00,Wunderground v.1.15,2013-01-31 15:45:00,
2013-01-31 09:55:00,40.9,28.9,29.94,WNW,286,4.0,23.0,62,0.00,,,0.00,Wunderground v.1.15,2013-01-31 15:55:00,
2013-01-31 10:00:00,41.1,29.5,29.94,WSW,250,4.0,23.0,63,0.00,,,0.00,Wunderground v.1.15,2013-01-31 16:00:00,
2013-01-31 10:05:00,41.8,29.7,29.94,SSW,205,6.0,23.0,62,0.00,,,0.00,Wunderground v.1.15,2013-01-31 16:05:00,
2013-01-31 10:15:00,42.4,29.9,29.94,SSW,205,7.0,23.0,61,0.00,,,0.00,Wunderground v.1.15,2013-01-31 16:15:00,
2013-01-31 10:20:00,42.6,29.7,29.94,WSW,238,6.0,6.0,60,0.00,,,0.00,Wunderground v.1.15,2013-01-31 16:20:00,
2013-01-31 10:25:00,42.9,30.4,29.94,SW,219,6.0,23.0,61,0.00,,,0.00,Wunderground v.1.15,2013-01-31 16:25:00,
2013-01-31 10:30:00,42.9,29.5,29.94,SSW,213,7.0,23.0,59,0.00,,,0.00,Wunderground v.1.15,2013-01-31 16:30:00,
2013-01-31 10:35:00,42.9,29.5,29.94,WSW,243,8.0,23.0,59,0.00,,,0.00,Wunderground v.1.15,2013-01-31 16:35:00,
2013-01-31 10:45:00,44.3,30.4,29.94,SSW,200,5.0,23.0,58,0.00,,,0.00,Wunderground v.1.15,2013-01-31 16:45:00,
2013-01-31 10:55:00,44.5,30.6,29.94,SW,224,6.0,23.0,58,0.00,,,0.00,Wunderground v.1.15,2013-01-31 16:55:00,
2013-01-31 11:00:00,45.0,30.2,29.93,SW,221,6.0,23.0,56,0.00,,,0.00,Wunderground v.1.15,2013-01-31 17:00:00,
2013-01-31 11:05:00,45.2,30.4,29.93,SSW,213,6.0,23.0,56,0.00,,,0.00,Wunderground v.1.15,2013-01-31 17:05:00,
2013-01-31 11:10:00,45.6,30.3,29.93,SSW,198,5.0,23.0,55,0.00,,,0.00,Wunderground v.1.15,2013-01-31 17:10:00,
2013-01-31 11:20:00,46.3,29.6,29.92,SSW,207,5.0,5.0,52,0.00,,,0.00,Wunderground v.1.15,2013-01-31 17:20:00,
2013-01-31 11:25:00,46.8,29.6,29.92,SW,217,5.0,6.0,51,0.00,,,0.00,Wunderground v.1.15,2013-01-31 17:25:00,
2013-01-31 11:30:00,47.2,29.5,29.91,SSW,200,4.0,23.0,50,0.00,,,0.00,Wunderground v.1.15,2013-01-31 17:30:00,
2013-01-31 11:35:00,47.7,29.5,29.91,WSW,255,4.0,23.0,49,0.00,,,0.00,Wunderground v.1.15,2013-01-31 17:35:00,
2013-01-31 11:45:00,48.4,29.1,29.90,SW,220,5.0,23.0,47,0.00,,,0.00,Wunderground v.1.15,2013-01-31 17:45:00,
2013-01-31 11:50:00,49.2,29.8,29.90,South,190,5.0,23.0,47,0.00,,,0.00,Wunderground v.1.15,2013-01-31 17:50:00,
2013-01-31 11:55:00,49.4,29.5,29.90,SW,232,6.0,23.0,46,0.00,,,0.00,Wunderground v.1.15,2013-01-31 17:55:00,
2013-01-31 12:00:00,49.6,29.6,29.89,WSW,237,8.0,23.0,46,0.00,,,0.00,Wunderground v.1.15,2013-01-31 18:00:00,
2013-01-31 12:05:00,50.1,30.1,29.89,WSW,238,6.0,23.0,46,0.00,,,0.00,Wunderground v.1.15,2013-01-31 18:05:00,
2013-01-31 12:10:00,49.9,29.4,29.89,WSW,248,6.0,6.0,45,0.00,,,0.00,Wunderground v.1.15,2013-01-31 18:10:00,
2013-01-31 12:15:00,50.2,30.2,29.89,SSW,199,7.0,7.0,46,0.00,,,0.00,Wunderground v.1.15,2013-01-31 18:15:00,
2013-01-31 12:20:00,51.0,30.9,29.89,WSW,238,6.0,6.0,46,0.00,,,0.00,Wunderground v.1.15,2013-01-31 18:20:00,
2013-01-31 12:30:00,51.4,30.2,29.88,SW,230,6.0,23.0,44,0.00,,,0.00,Wunderground v.1.15,2013-01-31 18:30:00,
2013-01-31 12:40:00,52.3,31.6,29.88,SW,220,6.0,23.0,45,0.00,,,0.00,Wunderground v.1.15,2013-01-31 18:40:00,
2013-01-31 12:45:00,52.0,31.3,29.87,SW,233,8.0,23.0,45,0.00,,,0.00,Wunderground v.1.15,2013-01-31 18:45:00,
2013-01-31 12:50:00,51.9,31.7,29.87,SW,217,9.0,23.0,46,0.00,,,0.00,Wunderground v.1.15,2013-01-31 18:50:00,
2013-01-31 12:55:00,51.9,32.3,29.87,SW,215,8.0,23.0,47,0.00,,,0.00,Wunderground v.1.15,2013-01-31 18:55:00,
2013-01-31 13:05:00,52.5,32.8,29.86,SW,229,7.0,9.0,47,0.00,,,0.00,Wunderground v.1.15,2013-01-31 19:05:00,
2013-01-31 13:10:00,52.3,32.6,29.86,SSW,195,7.0,23.0,47,0.00,,,0.00,Wunderground v.1.15,2013-01-31 19:10:00,
2013-01-31 13:15:00,52.3,32.6,29.85,SW,219,8.0,23.0,47,0.00,,,0.00,Wunderground v.1.15,2013-01-31 19:15:00,
2013-01-31 13:20:00,52.3,32.6,29.85,SW,234,9.0,9.0,47,0.00,,,0.00,Wunderground v.1.15,2013-01-31 19:20:00,
2013-01-31 13:25:00,52.5,32.8,29.85,SW,227,9.0,23.0,47,0.00,,,0.00,Wunderground v.1.15,2013-01-31 19:25:00,
2013-01-31 13:35:00,53.5,33.7,29.84,SSW,197,7.0,16.0,47,0.00,,,0.00,Wunderground v.1.15,2013-01-31 19:35:00,
2013-01-31 13:45:00,53.5,33.2,29.83,SW,236,9.0,11.0,46,0.00,,,0.00,Wunderground v.1.15,2013-01-31 19:45:00,
2013-01-31 13:50:00,54.0,33.7,29.83,WSW,246,9.0,23.0,46,0.00,,,0.00,Wunderground v.1.15,2013-01-31 19:50:00,
2013-01-31 13:55:00,53.9,33.6,29.83,WSW,249,10.0,23.0,46,0.00,,,0.00,Wunderground v.1.15,2013-01-31 19:55:00,
2013-01-31 14:00:00,54.0,33.7,29.83,WSW,246,10.0,10.0,46,0.00,,,0.00,Wunderground v.1.15,2013-01-31 20:00:00,
2013-01-31 14:10:00,54.5,34.1,29.83,SW,234,8.0,8.0,46,0.00,,,0.00,Wunderground v.1.15,2013-01-31 20:10:00,
2013-01-31 14:15:00,54.6,34.2,29.83,SSW,208,9.0,18.0,46,0.00,,,0.00,Wunderground v.1.15,2013-01-31 20:15:00,
2013-01-31 14:20:00,54.6,34.2,29.83,SW,230,9.0,9.0,46,0.00,,,0.00,Wunderground v.1.15,2013-01-31 20:20:00,
2013-01-31 14:25:00,54.1,34.3,29.83,SW,224,11.0,11.0,47,0.00,,,0.00,Wunderground v.1.15,2013-01-31 20:25:00,
2013-01-31 14:30:00,54.3,35.0,29.83,WSW,240,12.0,12.0,48,0.00,,,0.00,Wunderground v.1.15,2013-01-31 20:30:00,
2013-01-31 14:40:00,54.8,35.5,29.83,WSW,239,10.0,23.0,48,0.00,,,0.00,Wunderground v.1.15,2013-01-31 20:40:00,
2013-01-31 14:50:00,54.4,35.6,29.82,SW,229,10.0,23.0,49,0.00,,,0.00,Wunderground v.1.15,2013-01-31 20:50:00,
2013-01-31 14:55:00,54.5,35.7,29.82,SW,230,11.0,23.0,49,0.00,,,0.00,Wunderground v.1.15,2013-01-31 20:55:00,
2013-01-31 15:00:00,54.8,35.5,29.81,WSW,240,11.0,11.0,48,0.00,,,0.00,Wunderground v.1.15,2013-01-31 21:00:00,
2013-01-31 15:05:00,55.1,34.7,29.81,SW,228,10.0,23.0,46,0.00,,,0.00,Wunderground v.1.15,2013-01-31 21:05:00,
2013-01-31 15:10:00,55.2,34.8,29.81,SW,234,10.0,23.0,46,0.00,,,0.00,Wunderground v.1.15,2013-01-31 21:10:00,
2013-01-31 15:20:00,55.5,35.6,29.82,WSW,257,9.0,9.0,47,0.00,,,0.00,Wunderground v.1.15,2013-01-31 21:20:00,
2013-01-31 15:25:00,55.4,36.0,29.82,SW,228,10.0,10.0,48,0.00,,,0.00,Wunderground v.1.15,2013-01-31 21:25:00,
2013-01-31 15:30:00,55.7,36.3,29.83,West,259,7.0,23.0,48,0.00,,,0.00,Wunderground v.1.15,2013-01-31 21:30:00,
2013-01-31 15:35:00,55.6,35.7,29.83,WSW,241,8.0,23.0,47,0.00,,,0.00,Wunderground v.1.15,2013-01-31 21:35:00,
2013-01-31 15:45:00,55.5,36.1,29.83,WSW,238,10.0,23.0,48,0.00,,,0.00,Wunderground v.1.15,2013-01-31 21:45:00,
2013-01-31 15:50:00,55.7,35.8,29.83,SW,219,8.0,23.0,47,0.00,,,0.00,Wunderground v.1.15,2013-01-31 21:50:00,
2013-01-31 15:55:00,55.4,34.9,29.83,SW,227,8.0,23.0,46,0.00,,,0.00,Wunderground v.1.15,2013-01-31 21:55:00,
2013-01-31 16:00:00,55.4,34.9,29.83,WSW,238,9.0,23.0,46,0.00,,,0.00,Wunderground v.1.15,2013-01-31 22:00:00,
2013-01-31 16:05:00,55.2,34.8,29.83,WSW,243,9.0,23.0,46,0.00,,,0.00,Wunderground v.1.15,2013-01-31 22:05:00,
2013-01-31 16:10:00,55.0,34.6,29.83,SW,227,11.0,23.0,46,0.00,,,0.00,Wunderground v.1.15,2013-01-31 22:10:00,
2013-01-31 16:15:00,54.9,35.0,29.83,SW,225,10.0,23.0,47,0.00,,,0.00,Wunderground v.1.15,2013-01-31 22:15:00,
2013-01-31 16:20:00,54.7,35.4,29.83,SSW,211,10.0,10.0,48,0.00,,,0.00,Wunderground v.1.15,2013-01-31 22:20:00,
2013-01-31 16:25:00,54.7,35.4,29.83,WSW,249,10.0,23.0,48,0.00,,,0.00,Wunderground v.1.15,2013-01-31 22:25:00,
2013-01-31 16:30:00,54.7,35.4,29.83,WSW,244,9.0,23.0,48,0.00,,,0.00,Wunderground v.1.15,2013-01-31 22:30:00,
2013-01-31 16:35:00,54.6,34.8,29.83,SW,233,9.0,23.0,47,0.00,,,0.00,Wunderground v.1.15,2013-01-31 22:35:00,
2013-01-31 16:40:00,54.5,35.2,29.83,SW,229,10.0,23.0,48,0.00,,,0.00,Wunderground v.1.15,2013-01-31 22:40:00,
2013-01-31 16:50:00,54.2,34.9,29.83,WSW,243,9.0,23.0,48,0.00,,,0.00,Wunderground v.1.15,2013-01-31 22:50:00,
2013-01-31 17:00:00,54.0,34.7,29.83,SW,236,9.0,9.0,48,0.00,,,0.00,Wunderground v.1.15,2013-01-31 23:00:00,
2013-01-31 17:05:00,54.0,35.3,29.83,SSW,211,7.0,23.0,49,0.00,,,0.00,Wunderground v.1.15,2013-01-31 23:05:00,
2013-01-31 17:10:00,53.8,35.1,29.83,WSW,254,6.0,23.0,49,0.00,,,0.00,Wunderground v.1.15,2013-01-31 23:10:00,
2013-01-31 17:15:00,53.5,34.8,29.83,WSW,241,7.0,23.0,49,0.00,,,0.00,Wunderground v.1.15,2013-01-31 23:15:00,
2013-01-31 17:20:00,53.1,34.4,29.83,WSW,240,7.0,7.0,49,0.00,,,0.00,Wunderground v.1.15,2013-01-31 23:20:00,
2013-01-31 17:25:00,52.9,34.2,29.83,WSW,246,6.0,9.0,49,0.00,,,0.00,Wunderground v.1.15,2013-01-31 23:25:00,
2013-01-31 17:35:00,52.5,34.4,29.84,SW,232,6.0,23.0,50,0.00,,,0.00,Wunderground v.1.15,2013-01-31 23:35:00,
2013-01-31 17:40:00,52.4,34.3,29.84,SW,234,6.0,23.0,50,0.00,,,0.00,Wunderground v.1.15,2013-01-31 23:40:00,
2013-01-31 17:45:00,52.3,34.2,29.84,SW,215,5.0,23.0,50,0.00,,,0.00,Wunderground v.1.15,2013-01-31 23:45:00,
2013-01-31 17:55:00,51.9,33.8,29.84,WSW,241,6.0,23.0,50,0.00,,,0.00,Wunderground v.1.15,2013-01-31 23:55:00,
2013-01-31 18:00:00,51.9,34.3,29.84,WSW,238,6.0,23.0,51,0.00,,,0.00,Wunderground v.1.15,2013-02-01 00:00:00,
2013-01-31 18:05:00,51.8,34.2,29.84,SW,227,5.0,23.0,51,0.00,,,0.00,Wunderground v.1.15,2013-02-01 00:05:00,
2013-01-31 18:10:00,51.6,34.0,29.84,SSW,207,5.0,23.0,51,0.00,,,0.00,Wunderground v.1.15,2013-02-01 00:10:00,
2013-01-31 18:15:00,51.5,34.0,29.84,SSW,199,5.0,23.0,51,0.00,,,0.00,Wunderground v.1.15,2013-02-01 00:15:00,
2013-01-31 18:20:00,51.4,34.3,29.84,SW,233,4.0,23.0,52,0.00,,,0.00,Wunderground v.1.15,2013-02-01 00:20:00,
2013-01-31 18:25:00,51.2,34.2,29.84,WSW,238,4.0,23.0,52,0.00,,,0.00,Wunderground v.1.15,2013-02-01 00:25:00,
2013-01-31 18:30:00,51.0,34.0,29.85,SW,232,5.0,5.0,52,0.00,,,0.00,Wunderground v.1.15,2013-02-01 00:30:00,
2013-01-31 18:40:00,50.8,34.3,29.85,SW,227,2.0,23.0,53,0.00,,,0.00,Wunderground v.1.15,2013-02-01 00:40:00,
2013-01-31 18:45:00,50.5,34.5,29.86,SW,226,3.0,23.0,54,0.00,,,0.00,Wunderground v.1.15,2013-02-01 00:45:00,
2013-01-31 18:50:00,50.4,34.4,29.86,SW,227,2.0,23.0,54,0.00,,,0.00,Wunderground v.1.15,2013-02-01 00:50:00,
2013-01-31 19:00:00,50.1,34.5,29.86,SW,227,1.0,1.0,55,0.00,,,0.00,Wunderground v.1.15,2013-02-01 01:00:00,
2013-01-31 19:05:00,49.9,34.4,29.86,SW,227,1.0,23.0,55,0.00,,,0.00,Wunderground v.1.15,2013-02-01 01:05:00,
2013-01-31 19:10:00,49.9,34.8,29.86,SW,227,1.0,23.0,56,0.00,,,0.00,Wunderground v.1.15,2013-02-01 01:10:00,
2013-01-31 19:15:00,49.8,34.7,29.87,SW,226,1.0,23.0,56,0.00,,,0.00,Wunderground v.1.15,2013-02-01 01:15:00,
2013-01-31 19:20:00,49.9,34.8,29.87,SW,229,2.0,2.0,56,0.00,,,0.00,Wunderground v.1.15,2013-02-01 01:20:00,
2013-01-31 19:25:00,49.9,35.3,29.87,WNW,294,3.0,5.0,57,0.00,,,0.00,Wunderground v.1.15,2013-02-01 01:25:00,
2013-01-31 19:30:00,50.1,35.4,29.90,North,355,6.0,23.0,57,0.00,,,0.00,Wunderground v.1.15,2013-02-01 01:30:00,
2013-01-31 19:35:00,50.4,36.2,29.90,WNW,294,8.0,23.0,58,0.00,,,0.00,Wunderground v.1.15,2013-02-01 01:35:00,
2013-01-31 19:40:00,50.4,36.2,29.90,NNW,336,6.0,6.0,58,0.00,,,0.00,Wunderground v.1.15,2013-02-01 01:40:00,
2013-01-31 19:50:00,49.7,35.1,29.91,North,349,4.0,4.0,57,0.00,,,0.00,Wunderground v.1.15,2013-02-01 01:50:00,
2013-01-31 20:00:00,49.2,34.2,29.92,NW,323,6.0,23.0,56,0.00,,,0.00,Wunderground v.1.15,2013-02-01 02:00:00,
2013-01-31 20:05:00,48.9,33.4,29.92,NW,316,8.0,23.0,55,0.00,,,0.00,Wunderground v.1.15,2013-02-01 02:05:00,
2013-01-31 20:10:00,48.6,33.1,29.92,North,360,8.0,8.0,55,0.00,,,0.00,Wunderground v.1.15,2013-02-01 02:10:00,
2013-01-31 20:15:00,48.3,32.4,29.94,NW,317,10.0,10.0,54,0.00,,,0.00,Wunderground v.1.15,2013-02-01 02:15:00,
2013-01-31 20:25:00,47.9,32.0,29.94,North,9,8.0,23.0,54,0.00,,,0.00,Wunderground v.1.15,2013-02-01 02:25:00,
2013-01-31 20:30:00,47.7,31.9,29.95,NW,311,8.0,23.0,54,0.00,,,0.00,Wunderground v.1.15,2013-02-01 02:30:00,
2013-01-31 20:35:00,47.6,32.2,29.95,NW,315,9.0,23.0,55,0.00,,,0.00,Wunderground v.1.15,2013-02-01 02:35:00,
2013-01-31 20:40:00,47.4,32.0,29.95,NNW,344,10.0,23.0,55,0.00,,,0.00,Wunderground v.1.15,2013-02-01 02:40:00,
2013-01-31 20:50:00,46.9,33.3,29.95,North,11,8.0,8.0,59,0.00,,,0.00,Wunderground v.1.15,2013-02-01 02:50:00,
2013-01-31 21:00:00,44.6,33.9,29.98,NNE,28,10.0,10.0,66,0.00,,,0.00,Wunderground v.1.15,2013-02-01 03:00:00,
2013-01-31 21:05:00,44.0,34.1,29.98,NNW,337,9.0,23.0,68,0.00,,,0.00,Wunderground v.1.15,2013-02-01 03:05:00,
2013-01-31 21:10:00,43.4,33.9,29.98,NNE,15,7.0,23.0,69,0.00,,,0.00,Wunderground v.1.15,2013-02-01 03:10:00,
2013-01-31 21:15:00,43.0,33.9,29.98,North,355,8.0,23.0,70,0.00,,,0.00,Wunderground v.1.15,2013-02-01 03:15:00,
2013-01-31 21:20:00,42.4,33.7,29.98,NW,317,7.0,23.0,71,0.00,,,0.00,Wunderground v.1.15,2013-02-01 03:20:00,
2013-01-31 21:30:00,41.7,33.7,30.00,NNW,331,8.0,23.0,73,0.00,,,0.00,Wunderground v.1.15,2013-02-01 03:30:00,
2013-01-31 21:35:00,41.4,33.0,30.00,NW,304,9.0,23.0,72,0.00,,,0.00,Wunderground v.1.15,2013-02-01 03:35:00,
2013-01-31 21:40:00,40.9,32.2,30.00,West,281,10.0,10.0,71,0.00,,,0.00,Wunderground v.1.15,2013-02-01 03:40:00,
2013-01-31 21:45:00,40.5,31.1,30.02,WNW,292,10.0,23.0,69,0.00,,,0.00,Wunderground v.1.15,2013-02-01 03:45:00,
2013-01-31 21:55:00,39.8,29.7,30.02,NW,311,12.0,23.0,67,0.00,,,0.00,Wunderground v.1.15,2013-02-01 03:55:00,
2013-01-31 22:00:00,39.5,29.1,30.03,NE,36,12.0,12.0,66,0.00,,,0.00,Wunderground v.1.15,2013-02-01 04:00:00,
2013-01-31 22:05:00,39.3,29.3,30.03,NW,313,13.0,13.0,67,0.00,,,0.00,Wunderground v.1.15,2013-02-01 04:05:00,
2013-01-31 22:10:00,39.2,29.5,30.03,West,273,11.0,11.0,68,0.00,,,0.00,Wunderground v.1.15,2013-02-01 04:10:00,
2013-01-31 22:15:00,39.1,29.4,30.03,NE,34,10.0,23.0,68,0.00,,,0.00,Wunderground v.1.15,2013-02-01 04:15:00,
2013-01-31 22:20:00,38.9,29.2,30.03,NW,322,10.0,10.0,68,0.00,,,0.00,Wunderground v.1.15,2013-02-01 04:20:00,
2013-01-31 22:25:00,38.6,29.3,30.03,North,351,11.0,20.0,69,0.00,,,0.00,Wunderground v.1.15,2013-02-01 04:25:00,
2013-01-31 22:30:00,38.1,29.5,30.05,NNW,337,10.0,10.0,71,0.00,,,0.00,Wunderground v.1.15,2013-02-01 04:30:00,
2013-01-31 22:40:00,37.3,30.4,30.05,NNE,22,11.0,11.0,76,0.00,,,0.00,Wunderground v.1.15,2013-02-01 04:40:00,
2013-01-31 22:45:00,36.6,29.7,30.07,NNE,33,11.0,23.0,76,0.00,,,0.00,Wunderground v.1.15,2013-02-01 04:45:00,
2013-01-31 22:50:00,35.8,29.0,30.07,North,355,10.0,23.0,76,0.00,,,0.00,Wunderground v.1.15,2013-02-01 04:50:00,
2013-01-31 23:00:00,34.4,27.3,30.08,WNW,301,14.0,14.0,75,0.00,,,0.00,Wunderground v.1.15,2013-02-01 05:00:00,
2013-01-31 23:05:00,33.8,26.4,30.08,NNE,32,11.0,23.0,74,0.00,,,0.00,Wunderground v.1.15,2013-02-01 05:05:00,
2013-01-31 23:15:00,32.9,25.5,30.08,NNW,332,9.0,11.0,74,0.00,,,0.00,Wunderground v.1.15,2013-02-01 05:15:00,
2013-01-31 23:20:00,32.6,24.9,30.08,NW,325,9.0,9.0,73,0.00,,,0.00,Wunderground v.1.15,2013-02-01 05:20:00,
2013-01-31 23:25:00,32.7,24.7,30.08,North,5,7.0,23.0,72,0.00,,,0.00,Wunderground v.1.15,2013-02-01 05:25:00,
2013-01-31 23:35:00,32.9,23.8,30.08,NE,34,8.0,8.0,69,0.00,,,0.00,Wunderground v.1.15,2013-02-01 05:35:00,
2013-01-31 23:40:00,33.0,22.9,30.08,North,11,7.0,23.0,66,0.00,,,0.00,Wunderground v.1.15,2013-02-01 05:40:00,
2013-01-31 23:50:00,33.2,19.2,30.09,WNW,300,10.0,23.0,56,0.00,,,0.00,Wunderground v.1.15,2013-02-01 05:50:00,
2013-01-31 23:55:00,33.1,17.8,30.09,NE,38,11.0,23.0,53,0.00,,,0.00,Wunderground v.1.15,2013-02-01 05:55:00,